Scottsboro, AL

2:57 PM CDT on March 27, 2017 (GMT -0500)
Scottsboro

Weather History for K4A6 - August, 2014

Change the Weather History Date:

Sunday, August 24, 2014

  Actual Average (KHSV) Record (KHSV)
Temperature  
Mean Temperature 80 °F -  
Max Temperature 89 °F 89 °F 103 °F (1924)
Min Temperature 71 °F 67 °F 54 °F (1930)
Cooling Degree Days 15    
Growing Degree Days 30 (Base 50)    
Moisture  
Dew Point 73 °F    
Average Humidity 84    
Maximum Humidity 100    
Minimum Humidity 59    
Precipitation  
Precipitation 0.00 in - - ()
Sea Level Pressure  
Sea Level Pressure 29.97 in    
Wind  
Wind Speed 3 mph (NE)    
Max Wind Speed 12 mph    
Max Gust Speed 17 mph    
Visibility 9 miles    
Events Thunderstorm    
Averages and records for this station are not official NWS values.
T = Trace of Precipitation, MM = Missing Value Source: NWS Daily Summary

Daily Weather History Graph

Daily Weather History Graph

Search for Another Location

Airport or City:

Trip Planner

Search our weather history database for the weather conditions in past years. The results will help you decide how hot, cold, wet, or windy it might be!

Date:

Astronomy

Aug. 24, 2014 Rise Set
Actual Time 6:11 AM CDT 7:20 PM CDT
Civil Twilight 5:45 AM CDT 7:47 PM CDT
Nautical Twilight 5:13 AM CDT 8:18 PM CDT
Astronomical Twilight 4:41 AM CDT 8:50 PM CDT
Moon 5:21 AM CDT (8/24) 6:40 PM CDT (8/24)
Length of Visible Light 14h 01m
Length of Day
13h 09m
Waning Crescent, 1% of the Moon is Illuminated
Aug 24
Waning Crescent
Aug 25
New
Sep 2
First Quarter
Sep 8
Full
Sep 15
Last Quarter

Hourly Weather History & Observations

Time (CDT) Temp. Heat Index Dew Point Humidity Pressure Visibility Wind Dir Wind Speed Gust Speed Precip Events Conditions
12:15 AM 75.2 °F - 75.2 °F 100% 29.98 in 7.0 mi North 3.5 mph - N/A   Scattered Clouds
12:35 AM 75.2 °F - 75.2 °F 100% 29.98 in 6.0 mi Calm Calm - N/A   Mostly Cloudy
12:55 AM 75.2 °F - 75.2 °F 100% 29.98 in 7.0 mi Calm Calm - N/A   Overcast
1:15 AM 73.4 °F - 73.4 °F 100% 29.98 in 6.0 mi Calm Calm - N/A   Overcast
1:35 AM 75.2 °F - 75.2 °F 100% 29.97 in 7.0 mi Calm Calm - N/A   Scattered Clouds
1:55 AM 73.4 °F - 73.4 °F 100% 29.97 in 7.0 mi Calm Calm - N/A   Scattered Clouds
2:15 AM 73.4 °F - 73.4 °F 100% 29.97 in 8.0 mi Calm Calm - N/A   Mostly Cloudy
2:35 AM 73.4 °F - 73.4 °F 100% 29.97 in 7.0 mi Calm Calm - N/A   Overcast
2:55 AM 73.4 °F - 73.4 °F 100% 29.97 in 7.0 mi Calm Calm - N/A   Mostly Cloudy
3:15 AM 73.4 °F - 71.6 °F 94% 29.95 in 10.0 mi Calm Calm - N/A   Partly Cloudy
3:35 AM 73.4 °F - 71.6 °F 94% 29.94 in 9.0 mi Calm Calm - N/A   Scattered Clouds
3:55 AM 73.4 °F - 71.6 °F 94% 29.94 in 9.0 mi South 3.5 mph - N/A   Mostly Cloudy
4:15 AM 73.4 °F - 71.6 °F 94% 29.93 in 9.0 mi Calm Calm - N/A   Mostly Cloudy
4:35 AM 71.6 °F - 71.6 °F 100% 29.93 in 8.0 mi Calm Calm - N/A   Unknown
4:55 AM 73.4 °F - 71.6 °F 94% 29.93 in 10.0 mi Calm Calm - N/A   Scattered Clouds
5:15 AM 73.4 °F - 71.6 °F 94% 29.94 in 10.0 mi Calm Calm - N/A   Unknown
5:35 AM 73.4 °F - 71.6 °F 94% 29.93 in 10.0 mi Calm Calm - N/A   Unknown
5:55 AM 71.6 °F - 71.6 °F 100% 29.94 in 8.0 mi NNE 4.6 mph - N/A   Clear
6:15 AM 71.6 °F - 71.6 °F 100% 29.94 in 9.0 mi North 3.5 mph - N/A   Clear
6:35 AM 71.6 °F - 71.6 °F 100% 29.96 in 10.0 mi Calm Calm - N/A   Clear
6:55 AM 71.6 °F - 71.6 °F 100% 29.97 in 8.0 mi NNE 6.9 mph - N/A   Clear
7:15 AM 73.4 °F - 71.6 °F 94% 29.97 in 9.0 mi NNE 4.6 mph - N/A   Clear
7:35 AM 75.2 °F - 71.6 °F 89% 29.98 in 10.0 mi NE 3.5 mph - N/A   Clear
7:55 AM 77.0 °F - 73.4 °F 89% 29.99 in 10.0 mi NE 4.6 mph - N/A   Clear
8:15 AM 77.0 °F - 71.6 °F 83% 29.99 in 9.0 mi NE 5.8 mph - N/A   Clear
8:35 AM 78.8 °F - 71.6 °F 78% 29.99 in 10.0 mi NE 6.9 mph - N/A   Clear
8:55 AM 78.8 °F - 73.4 °F 83% 30.00 in 10.0 mi NE 5.8 mph - N/A Thunderstorm Scattered Clouds
9:15 AM 80.6 °F 85.4 °F 73.4 °F 79% 30.00 in 10.0 mi NE 6.9 mph - N/A   Scattered Clouds
9:35 AM 80.6 °F 85.4 °F 73.4 °F 79% 30.00 in 10.0 mi NNE 8.1 mph - N/A   Clear
9:55 AM 82.4 °F 88.2 °F 73.4 °F 74% 30.01 in 10.0 mi NE 9.2 mph - N/A   Mostly Cloudy
10:15 AM 82.4 °F 88.2 °F 73.4 °F 74% 30.01 in 10.0 mi NE 8.1 mph - N/A   Mostly Cloudy
10:35 AM 82.4 °F 88.2 °F 73.4 °F 74% 30.01 in 10.0 mi NE 6.9 mph - N/A   Scattered Clouds
10:55 AM 82.4 °F 88.2 °F 73.4 °F 74% 30.01 in 10.0 mi ENE 5.8 mph - N/A   Mostly Cloudy
11:15 AM 84.2 °F 90.9 °F 73.4 °F 70% 30.01 in 10.0 mi NNE 10.4 mph - N/A   Mostly Cloudy
11:35 AM 84.2 °F 90.9 °F 73.4 °F 70% 30.01 in 9.0 mi NNE 5.8 mph - N/A   Overcast
11:55 AM 84.2 °F 92.3 °F 75.2 °F 74% 30.00 in 10.0 mi NE 5.8 mph - N/A   Scattered Clouds
12:15 PM 84.2 °F 90.9 °F 73.4 °F 70% 29.99 in 10.0 mi NE 4.6 mph - N/A   Clear
12:35 PM 84.2 °F 92.3 °F 75.2 °F 74% 29.98 in 10.0 mi North 4.6 mph - N/A   Clear
12:55 PM 86.0 °F 95.1 °F 75.2 °F 70% 29.98 in 10.0 mi Calm Calm - N/A   Partly Cloudy
1:15 PM 86.0 °F 93.4 °F 73.4 °F 66% 29.97 in 10.0 mi NNW 4.6 mph - N/A   Mostly Cloudy
1:35 PM 87.8 °F 95.6 °F 73.4 °F 62% 29.96 in 10.0 mi East 3.5 mph - N/A   Scattered Clouds
1:55 PM 89.6 °F 99.8 °F 75.2 °F 62% 29.95 in 10.0 mi NE 5.8 mph - N/A   Partly Cloudy
2:15 PM 87.8 °F 95.6 °F 73.4 °F 62% 29.94 in 10.0 mi NE 4.6 mph - N/A   Partly Cloudy
2:35 PM 87.8 °F 95.6 °F 73.4 °F 62% 29.94 in 10.0 mi NE 4.6 mph - N/A   Partly Cloudy
2:55 PM 89.6 °F 98.2 °F 73.4 °F 59% 29.94 in 10.0 mi NE 11.5 mph - N/A Thunderstorm Partly Cloudy
3:15 PM 89.6 °F 98.2 °F 73.4 °F 59% 29.94 in 10.0 mi ENE 11.5 mph - N/A Thunderstorm Thunderstorm
3:35 PM 82.4 °F 87.2 °F 71.6 °F 70% 29.95 in 10.0 mi ESE 9.2 mph 17.3 mph N/A Thunderstorm Scattered Clouds
3:55 PM 80.6 °F 84.6 °F 71.6 °F 74% 29.94 in 10.0 mi SE 5.8 mph - N/A Thunderstorm Partly Cloudy
4:15 PM 78.8 °F - 71.6 °F 78% 29.95 in 10.0 mi East 3.5 mph - N/A Thunderstorm Partly Cloudy
4:35 PM 80.6 °F 84.6 °F 71.6 °F 74% 29.95 in 10.0 mi Calm Calm - N/A   Partly Cloudy
4:55 PM 80.6 °F 84.6 °F 71.6 °F 74% 29.95 in 10.0 mi Calm Calm - N/A   Clear
5:15 PM 80.6 °F 84.6 °F 71.6 °F 74% 29.95 in 10.0 mi Calm Calm - N/A   Clear
5:35 PM 80.6 °F 84.6 °F 71.6 °F 74% 29.94 in 10.0 mi ENE 3.5 mph - N/A   Clear
5:55 PM 78.8 °F - 73.4 °F 83% 29.94 in 10.0 mi East 3.5 mph - N/A   Clear
6:15 PM 80.6 °F 85.4 °F 73.4 °F 79% 29.95 in 10.0 mi NNW 3.5 mph - N/A   Clear
6:35 PM 80.6 °F 85.4 °F 73.4 °F 79% 29.95 in 10.0 mi NNE 3.5 mph - N/A   Clear
6:55 PM 78.8 °F - 73.4 °F 83% 29.97 in 10.0 mi Calm Calm - N/A   Clear
7:15 PM 78.8 °F - 73.4 °F 83% 29.97 in 10.0 mi Calm Calm - N/A   Clear
7:35 PM 78.8 °F - 75.2 °F 89% 29.98 in 10.0 mi Calm Calm - N/A   Clear
7:55 PM 77.0 °F - 75.2 °F 94% 29.98 in 10.0 mi Calm Calm - N/A   Clear
8:15 PM 77.0 °F - 75.2 °F 94% 29.98 in 10.0 mi Calm Calm - N/A   Mostly Cloudy
8:35 PM 77.0 °F - 75.2 °F 94% 29.99 in 10.0 mi Calm Calm - N/A   Unknown
8:55 PM 77.0 °F - 73.4 °F 89% 30.00 in 10.0 mi Calm Calm - N/A   Unknown
9:15 PM 77.0 °F - 75.2 °F 94% 30.00 in 10.0 mi Calm Calm - N/A   Clear
9:35 PM 77.0 °F - 73.4 °F 89% 30.01 in 10.0 mi Calm Calm - N/A   Partly Cloudy
9:55 PM 77.0 °F - 73.4 °F 89% 30.01 in 10.0 mi Calm Calm - N/A   Unknown
10:15 PM 77.0 °F - 75.2 °F 94% 30.01 in 10.0 mi Calm Calm - N/A   Unknown
10:35 PM 77.0 °F - 71.6 °F 83% 30.01 in 10.0 mi East 3.5 mph - N/A   Clear
10:55 PM 77.0 °F - 71.6 °F 83% 30.01 in 10.0 mi NE 3.5 mph - N/A   Clear
11:15 PM 77.0 °F - 71.6 °F 83% 30.02 in 10.0 mi North 3.5 mph - N/A   Clear
11:35 PM 77.0 °F - 68.0 °F 74% 30.03 in 10.0 mi Calm Calm - N/A   Clear
11:55 PM 77.0 °F - 68.0 °F 74% 30.03 in 10.0 mi Calm Calm - N/A   Mostly Cloudy